AirNav   Everest Fuels
 
 926 users online  

KLVK Livermore Municipal Airport
Livermore, California, USA

GOING TO LIVERMORE?


FAA INFORMATION EFFECTIVE 19 MAY 2022

Location

FAA Identifier: LVK
Lat/Long: 37-41-36.2000N 121-49-13.3000W
37-41.603333N 121-49.221667W
37.6933889,-121.8203611
(estimated)
Elevation: 399.9 ft. / 121.9 m (surveyed)
Variation: 16E (1980)
From city: 3 miles W of LIVERMORE, CA
Time zone: UTC -7 (UTC -8 during Standard Time)
Zip code: 94550

Airport Operations

Airport use: Open to the public
Activation date: 12/1965
Control tower: yes
ARTCC: OAKLAND CENTER
FSS: OAKLAND FLIGHT SERVICE STATION
NOTAMs facility: LVK (NOTAM-D service available)
Attendance: MON-FRI 0730-1700, ALL SAT-SUN 0700-1100
Wind indicator: lighted
Segmented circle: yes
Lights: ATC CNTL. WHEN ATCT CLSD, ACTVT MALSR RWY 25R; TWY LGTS - 118.1. HIRL RWY 07L/25R OPER LOW INTST; TO INCREASE INTST ACTVT 118.1. MIRL RWY 07R/25L OPER LOW INTST; NOT AVBL WHEN ATCT CLSD. PAPI RWY 07L AND VASI RWY 25R OPR CONSLY.
Beacon: white-green (lighted land airport)
Operates sunset to sunrise.

Airport Communications

CTAF: 118.1
UNICOM: 122.95
ATIS: 119.65
WX ASOS: PHONE 925-606-5412
LIVERMORE GROUND: 121.6 [0700-2100]
LIVERMORE TOWER: 118.1 239.25 [0700-2100]
NORCAL APPROACH: 123.85 ;RWY 07L/25R, 07R/25L
NORCAL DEPARTURE: 123.85 ;RWY 07L, 07R 125.35 ;RWY 25L, 25R
WX AWOS-3 at C83 (12 nm NE): 123.775 (925-634-0906)
WX ASOS at HWD (14 nm W): PHONE 510-786-3052
WX AWOS-3 at TCY (18 nm E): 118.375 (209-831-4335)
WX ASOS at OAK (19 nm W): PHONE 510-214-1776
WX AWOS-3PT at NUQ (20 nm SW): 124.175 (650-386-0655)
  • FREQ 121.5 NOT AVAILABLE.

Nearby radio navigation aids

VOR radial/distance  VOR name  Freq  Var
OAKr079/19.2OAKLAND VOR/DME116.8017E
SJCr001/20.0SAN JOSE VOR/DME114.1016E
CCRr136/23.6CONCORD VOR/DME117.0017E
SFOr063/26.7SAN FRANCISCO VOR/DME115.8017E
OSIr034/28.4WOODSIDE VOR/DME113.9017E
SAUr089/34.7SAUSALITO VOR/DME116.2017E
SGDr121/39.2SCAGGS ISLAND VORTAC112.1017E

Airport Services

Fuel available: 100LL JET-A
Parking: tiedowns
Airframe service: MAJOR
Powerplant service: MAJOR
Bottled oxygen: HIGH
Bulk oxygen: HIGH

Runway Information

Runway 7L/25R

Dimensions: 5253 x 100 ft. / 1601 x 30 m
Surface: asphalt/grooved, in excellent condition
Weight bearing capacity: 
Single wheel: 45.0
Double wheel: 90.0
Runway edge lights: high intensity
RWY EDGE LGT ON LOW AND MED INTST LEVEL ON DOWNWIND LEG OF TFC PAT DFCLT TO SEE.
RUNWAY 7L  RUNWAY 25R
Latitude: 37-41.636222N37-41.627625N
Longitude: 121-49.764095W121-48.675008W
Elevation: 372.9 ft.399.9 ft.
Traffic pattern: leftright
Runway heading: 074 magnetic, 090 true254 magnetic, 270 true
Markings: precision, in good conditionprecision, in good condition
Visual slope indicator: 4-light PAPI on right (4.00 degrees glide path)4-box VASI on left (3.00 degrees glide path)
Approach lights: MALSR: 1,400 foot medium intensity approach lighting system with runway alignment indicator lights
Touchdown point: yes, no lightsyes, no lights
Instrument approach: ILS/DME
Obstructions: 75 ft. tree, 2016 ft. from runway, 350 ft. left of centerline, 24:1 slope to clear
+6 FT FENCE 180 FT FM RY END 400 FT LEFT OF EXTDD CNTRLN.
24 ft. bldg, 638 ft. from runway, 560 ft. right of centerline, 18:1 slope to clear

Runway 7R/25L

Dimensions: 2699 x 75 ft. / 823 x 23 m
Surface: asphalt, in excellent condition
Weight bearing capacity: 
Single wheel: 12.5
Runway edge lights: medium intensity
RUNWAY 7R  RUNWAY 25L
Latitude: 37-41.551892N37-41.547342N
Longitude: 121-49.505328W121-48.945675W
Elevation: 378.8 ft.394.6 ft.
Traffic pattern: rightleft
Runway heading: 074 magnetic, 090 true254 magnetic, 270 true
Markings: basic, in good conditionbasic, in good condition
Touchdown point: yes, no lightsyes, no lights

Helipad H1

Dimensions: 24 x 22 ft. / 7 x 7 m
Surface: asphalt, in good condition
Latitude: 37-41.435500N
Longitude: 121-49.402000W
Elevation: 382.0 ft.
Traffic pattern: leftleft

Airport Ownership and Management from official FAA records

Ownership: Publicly-owned
Owner: CITY OF LIVERMORE
1052 SOUTH LIVERMORE AVE
LIVERMORE, CA 94550
Phone 925-960-4200
Manager: SEAN MORAN
680 TERMINAL CIRCLE
LIVERMORE, CA 94551
Phone 925-960-8230

Airport Operational Statistics

Aircraft based on the field: 409
Single engine airplanes: 366
Multi engine airplanes: 30
Jet airplanes: 4
Helicopters: 5
Gliders airplanes: 4
    
Aircraft operations: avg 397/day *
63% local general aviation
35% transient general aviation
2% air taxi
<1% military
<1% commercial
* for 12-month period ending 31 December 2020

Additional Remarks

BE ALERT TO CONSIDERABLE BIRD ACTIVITY ON & IN VICINITY OF ARPT.
DO NOT MISTAKE PARALLEL TAXIWAY N OF RWY 25R/7L AS RWY. NOISE SENSITIVE AREAS 3/4 MILE EAST & 2 MILES W OF ARPT.
EFFECTIVE RY GRADIENT RY 07L 0.52% UP; RY 07R 0.59% UP.
FOR CD WHEN ATCT IS CLSD CTC NORCAL APCH AT 916-361-0516.

Instrument Procedures

NOTE: All procedures below are presented as PDF files. If you need a reader for these files, you should download the free Adobe Reader.

NOT FOR NAVIGATION. Please procure official charts for flight.
FAA instrument procedures published for use from 19 May 2022 at 0901Z to 16 June 2022 at 0900Z.

 
IAPs - Instrument Approach Procedures
ILS RWY 25R   download (237KB)
RNAV (GPS) RWY 25R   download (278KB)
LOC RWY 25R   download (276KB)
NOTE: Special Alternate Minimums apply   download (136KB)
 
LIVERMORE THREE (OBSTACLE)   2 pages: [1] [2] (605KB)
NOTE: Special Take-Off Minimums/Departure Procedures apply   download (227KB)

Other nearby airports with instrument procedures:

C83 - Byron Airport (12 nm NE)
KHWD - Hayward Executive Airport (14 nm W)
KTCY - Tracy Municipal Airport (18 nm E)
KOAK - Metro Oakland International Airport (19 nm W)
KPAO - Palo Alto Airport (20 nm SW)
KNUQ - Moffett Federal Airfield (20 nm SW)
 
Loc | Ops | Rwys | IFR | FBO | Links
Com | Nav | Svcs | Stats | Notes
Area around KLVK (Livermore Municipal Airport)
 
Road maps at: MapQuest Bing Google
 
Aerial photo
WARNING: Photo may not be current or correct
Aerial photo of KLVK (Livermore Municipal Airport)
Photo by Sai Dwibhashyam
Photo taken 29-Jul-2020
looking east.

Do you have a better or more recent aerial photo of Livermore Municipal Airport that you would like to share? If so, please send us your photo.

 
Sectional chart

 
Airport diagram
Diagram of KLVK (Livermore Municipal Airport)
Download PDF
of official airport diagram from the FAA

 
Airport distance calculator
Flying to Livermore Municipal Airport? Find the distance to fly.

From to KLVK

Sunrise and sunset
Times for 19-May-2022
 Local
(UTC-7)
 Zulu
(UTC)
Morning civil twilight05:2612:26
Sunrise05:5512:55
Sunset20:1203:12
Evening civil twilight20:4203:42

Current date and time
Zulu (UTC)  20-May-2022 03:21:46
Local (UTC-7)  19-May-2022 20:21:46
 
METAR
KLVK 200253Z 21006KT 10SM CLR 20/07 A2981 RMK AO2 SLP091 T02000072 56007
KC83 
12nm NE 
200255Z AUTO 24018G24KT 10SM CLR 23/06 A2977 RMK AO2
KHWD 
14nm W 
200254Z 27007KT 10SM CLR 16/08 A2984 RMK AO2 SLP113 T01560078 56014
KTCY 
18nm E 
200255Z AUTO 26011KT 10SM CLR 26/05 A2976 RMK A01
KOAK 
19nm W 
200253Z 27009KT 10SM FEW180 SCT240 17/08 A2983 RMK AO2 SLP102 T01720083 56014
KNUQ 
19nm SW 
200255Z AUTO 35011KT 10SM CLR 18/07 A2984 RMK AO2
KPAO 
20nm SW 
200147Z 29017G23KT 10SM SKC 21/03 A2985
TAF
KLVK 200028Z 2000/2024 28010KT P6SM SKC FM200130 28013G20KT P6SM SKC FM200500 VRB05KT P6SM SKC FM200700 34005KT P6SM SKC WS010/35035KT FM201600 34012G22KT P6SM SKC FM201900 34015KT P6SM SKC
KOAK 
19nm W 
191740Z 1918/2024 27009G15KT P6SM FEW200 FM192000 28013G20KT P6SM FEW200 FM200400 28008KT P6SM FEW200 FM200900 VRB05KT P6SM FEW200 WS020/01035KT FM201500 35012G24KT P6SM SKC FM202000 30012G20KT P6SM SKC
NOTAMs
Click for the latest NOTAMs
NOTAMs are issued by the DoD/FAA and will open in a separate window not controlled by AirNav.

 

 
 

FBO, Fuel Providers, and Aircraft Ground Support

  
 Business Name 
 
 Contact 
 
 Services / Description 
 
Fuel Prices
 
Comments
  
 Five Rivers Aviation
925-315-4130
[web site]
[email]
Aviation fuel, Aircraft ground handling, Oxygen service, Aircraft parking (ramp or tiedown), Hangars, Hangar leasing / sales, GPU / Power cart, ...
 
Avfuel Contract Fuel   Everest Fuel   AVTRIP   Enterprise Rent-A-Car  
 
More info about Five Rivers Aviation
Avfuel
100LL Jet A
FS $7.49 $7.10 
SS $6.49 --- 
 Updated 17-May-2022
 
   3 read write
FS=Full service
SS=Self service
Update Fuel Prices
 

Would you like to see your business listed on this page?

 If your business provides an interesting product or service to pilots, flight crews, aircraft, or users of the Livermore Municipal Airport, you should consider listing it here.  To start the listing process, click on the button below
 
Add a business
 

Other Pages about Livermore Municipal Airport

www.cityoflivermore.net/...
 
Update a link
 
Copyright © AirNav, LLC. All rights reserved. Privacy Policy  Contact